Location: Unspecified
(0.0000°N, 0.0000°E)
Time: 21:34:46
(UTC+00:00)

Vanguard 1 - Visible Passes

Search period start: 29 April 2025 00:00
Search period end: 09 May 2025 00:00
Orbit: 650 x 3821 km, 34.2° (Epoch: 26 April)

Date Brightness Start Highest point End Pass type
(mag) Time Alt. Az. Time Alt. Az. Time Alt. Az.
29 Apr 12.8 05:16:46 10° NNW 05:23:46 27° NE 05:34:50 10° E visible
29 Apr 11.1 19:59:12 10° WSW 20:10:57 59° NW 20:13:48 38° NNE visible
30 Apr 11.6 20:19:51 10° WSW 20:30:09 39° NW 20:33:00 29° N visible
01 May 11.5 18:11:47 10° SW 18:28:20 73° SE 18:36:53 10° ENE visible
01 May 12.1 20:41:03 10° W 20:49:17 26° NW 20:52:12 20° N visible
02 May 12.9 03:57:44 10° NNE 04:00:58 13° NE 04:04:55 10° ENE visible
02 May 11.4 18:31:49 10° SW 18:47:58 85° NW 18:56:16 10° NE visible
02 May 12.6 21:03:08 10° WNW 21:08:30 16° NW 21:11:23 13° NNW visible
03 May 12.5 04:15:08 10° N 04:20:16 21° NE 04:27:45 10° E visible
03 May 11.7 18:52:09 10° WSW 19:07:23 63° NW 19:15:24 10° NE visible
04 May 12.4 04:33:24 10° NNW 04:39:26 32° NE 04:49:22 10° ESE visible
04 May 12.2 19:12:54 10° WSW 19:26:39 45° NW 19:34:17 10° NNE visible
05 May 11.8 04:52:04 10° NNW 04:58:36 48° NE 05:10:18 10° ESE visible
05 May 12.6 19:34:10 10° W 19:45:51 32° NW 19:52:54 10° NNE visible
06 May 11.2 05:11:01 10° NW 05:17:50 71° NE 05:30:46 10° ESE visible
06 May 12.8 19:56:08 10° W 20:05:07 22° NW 20:11:11 10° N visible
07 May 12.4 03:13:44 10° N 03:17:11 16° NE 03:21:34 10° ENE visible
07 May 11.0 05:30:14 10° WNW 05:37:17 83° SW 05:50:52 10° SE visible
07 May 13.1 20:19:14 10° WNW 20:24:33 14° NW 20:28:45 10° NNW visible
08 May 12.0 03:32:32 14° N 03:36:22 26° NE 03:43:17 10° E visible
08 May 12.7 18:05:09 10° WSW 18:22:29 51° NW 18:32:07 10° NNE visible
